Location: Newark
(41.8083°N, 72.2500°W)
Time: 10:51:02
(UTC+00:00)

Vanguard 1 Rocket - Pass Details

Date: 09 December 2021
Orbit: 651 x 4224 km, 34.3° (Epoch: 15 January)

Event Time Altitude Azimuth Distance (km) Brightness Sun altitude
Exits shadow 09:40:44 33° 254° (WSW) 3,391 9.7 -26.0°
Maximum altitude 09:48:09 59° 192° (SSW) 3,230 10.0 -24.7°
Drops below altitude 10° 10:10:42 10° 121° (ESE) 7,266 13.0 -20.5°
Sets 10:16:59 0° 118° (ESE) 8,443 13.8 -19.4°
